Location: Vulcan
(50.4000°N, 113.2500°W)
Time: 08:12:43
(UTC-07:00)

S-56A Canister/Altair - Visible Passes

Search period start: 21 November 2019 00:00
Search period end: 01 December 2019 00:00
Orbit: 634 x 2498 km, 38.9° (Epoch: 20 November)

Date Brightness Start Highest point End Pass type
(mag) Time Alt. Az. Time Alt. Az. Time Alt. Az.
21 Nov 10.0 17:12:07 10° SW 17:20:59 32° SSE 17:27:19 10° ESE visible
21 Nov 9.2 19:16:59 10° WSW 19:24:28 33° S 19:26:34 27° SSE visible
21 Nov 10.5 21:22:56 10° WSW 21:24:00 13° WSW 21:24:00 13° WSW visible
22 Nov 9.5 18:43:34 10° WSW 18:51:48 35° S 18:55:41 20° SE visible
22 Nov 10.0 20:49:26 10° WSW 20:53:07 19° SW 20:53:07 19° SW visible
23 Nov 9.7 18:10:05 10° WSW 18:19:04 37° S 18:24:50 12° ESE visible
23 Nov 9.7 20:15:57 10° WSW 20:22:05 24° SSW 20:22:16 24° SSW visible
24 Nov 9.8 17:36:33 10° WSW 17:46:16 39° S 17:52:59 10° ESE visible
24 Nov 9.5 19:42:26 10° WSW 19:49:31 28° SSW 19:51:26 24° S visible
25 Nov 10.0 17:03:00 10° WSW 17:13:25 40° S 17:20:38 10° ESE visible
25 Nov 9.7 19:08:53 10° WSW 19:16:53 31° SSW 19:20:39 19° SSE visible
25 Nov 10.6 21:16:56 10° WSW 21:18:05 11° SW 21:18:05 11° SW visible
26 Nov 9.9 18:35:17 10° WSW 18:44:11 35° SSW 18:49:54 12° SE visible
26 Nov 10.3 20:42:35 10° WSW 20:46:38 15° SW 20:47:21 15° SSW visible
27 Nov 10.0 18:01:40 10° WSW 18:11:26 38° SSW 18:18:12 10° SE visible
27 Nov 10.1 20:08:38 10° WSW 20:14:08 18° SW 20:16:40 15° SSW visible
28 Nov 10.1 17:28:01 10° WSW 17:38:36 41° SSW 17:45:55 10° SE visible
28 Nov 10.2 19:34:49 10° W 19:41:34 22° SW 19:46:03 12° S visible
29 Nov 10.2 16:54:20 10° WSW 17:05:40 43° S 17:13:33 10° ESE visible
29 Nov 10.3 19:01:01 10° W 19:08:56 26° SSW 19:14:48 10° SSE visible
30 Nov 10.4 18:27:15 10° W 18:36:15 30° SSW 18:42:46 10° SSE visible
